When you browse on this site, cookies collect data to enhance your experience and personalize the content and advertising you see.
Visit our Privacy Policy to learn more. By continuing to use the site, you agree to this use of cookies and data.
  • In Netherlands
  • List of Countries
  • For 7 days
  • Water Temperature
  • Weather Map
  • Weather Widgets
  • user-avatar
    Login

    Hourly Weather Bobo-Dioulasso

    Today, 4 June, Thursday

    Time Temperature Precipitation Wind Pressure Humidity
    00:00 +31°C° 0 mm 2 mps 723 mmHg 48%
    01:00 +30°C° 0 mm 2 mps 722 mmHg 52%
    02:00 +30°C° 0 mm 2 mps 722 mmHg 56%
    03:00 +29°C° 0 mm 3 mps 721 mmHg 60%
    04:00 +29°C° 0 mm 3 mps 722 mmHg 64%
    05:00 +28°C° 0 mm 3 mps 722 mmHg 68%
    06:00 +28°C° 0 mm 3 mps 722 mmHg 72%
    07:00 +29°C° 0 mm 3 mps 723 mmHg 67%
    08:00 +32°C° 0 mm 4 mps 723 mmHg 62%
    09:00 +33°C° 0 mm 4 mps 723 mmHg 57%
    10:00 +35°C° 0 mm 4 mps 723 mmHg 49%
    11:00 +37°C° 0 mm 3 mps 723 mmHg 42%
    12:00 +39°C° 0 mm 3 mps 723 mmHg 35%
    13:00 +40°C° 0 mm 3 mps 722 mmHg 32%
    14:00 +40°C° 0 mm 3 mps 721 mmHg 29%
    15:00 +42°C° 0 mm 3 mps 721 mmHg 25%
    16:00 +40°C° 0 mm 2 mps 721 mmHg 27%
    17:00 +39°C° 0 mm 2 mps 720 mmHg 29%
    18:00 +37°C° 0 mm 1 mps 720 mmHg 31%
    19:00 +37°C° 0.1 mm 2 mps 721 mmHg 36%
    20:00 +35°C° 0.1 mm 2 mps 721 mmHg 40%
    21:00 +34°C° 0.1 mm 3 mps 722 mmHg 44%
    22:00 +33°C° 0.1 mm 3 mps 722 mmHg 45%
    23:00 +33°C° 0.1 mm 3 mps 723 mmHg 45%

    Tomorrow, 5 June, Friday

    Time Temperature Precipitation Wind Pressure Humidity
    00:00 +33°C° 0.1 mm 3 mps 723 mmHg 46%
    01:00 +31°C° 0.8 mm 3 mps 723 mmHg 52%
    02:00 +30°C° 0.8 mm 3 mps 723 mmHg 58%
    03:00 +29°C° 0.8 mm 2 mps 722 mmHg 64%
    04:00 +28°C° 2.4 mm 3 mps 723 mmHg 70%
    05:00 +26°C° 2.4 mm 4 mps 723 mmHg 76%
    06:00 +25°C° 2.4 mm 5 mps 723 mmHg 82%
    07:00 +25°C° 0.2 mm 4 mps 723 mmHg 79%
    08:00 +26°C° 0.2 mm 4 mps 723 mmHg 75%
    09:00 +27°C° 0.2 mm 3 mps 724 mmHg 71%
    10:00 +28°C° 0 mm 3 mps 724 mmHg 66%
    11:00 +30°C° 0 mm 3 mps 723 mmHg 60%
    12:00 +31°C° 0 mm 3 mps 723 mmHg 55%
    13:00 +33°C° 0 mm 3 mps 723 mmHg 50%
    14:00 +34°C° 0 mm 3 mps 722 mmHg 46%
    15:00 +36°C° 0 mm 3 mps 722 mmHg 42%
    16:00 +35°C° 0 mm 2 mps 722 mmHg 47%
    17:00 +32°C° 0 mm 2 mps 722 mmHg 51%
    18:00 +31°C° 0 mm 2 mps 722 mmHg 56%
    19:00 +31°C° 0 mm 2 mps 722 mmHg 56%
    20:00 +30°C° 0 mm 2 mps 723 mmHg 57%
    21:00 +30°C° 0 mm 1 mps 723 mmHg 57%
    22:00 +29°C° 0.1 mm 1 mps 723 mmHg 58%
    23:00 +29°C° 0.1 mm 1 mps 724 mmHg 60%

    Day after tomorrow, 6 June, Saturday

    Time Temperature Precipitation Wind Pressure Humidity
    00:00 +28°C° 0.1 mm 1 mps 724 mmHg 61%
    01:00 +28°C° 0 mm 2 mps 723 mmHg 65%
    02:00 +28°C° 0 mm 3 mps 723 mmHg 69%
    03:00 +27°C° 0 mm 3 mps 723 mmHg 72%
    04:00 +27°C° 0 mm 3 mps 723 mmHg 74%
    05:00 +27°C° 0 mm 3 mps 723 mmHg 75%
    06:00 +27°C° 0 mm 3 mps 723 mmHg 76%
    07:00 +28°C° 0 mm 3 mps 724 mmHg 71%
    08:00 +30°C° 0 mm 3 mps 724 mmHg 65%
    09:00 +31°C° 0 mm 3 mps 725 mmHg 59%
    10:00 +34°C° 0 mm 3 mps 725 mmHg 53%
    11:00 +36°C° 0 mm 2 mps 725 mmHg 47%
    12:00 +37°C° 0 mm 2 mps 724 mmHg 41%
    13:00 +38°C° 0 mm 2 mps 724 mmHg 39%
    14:00 +38°C° 0 mm 3 mps 723 mmHg 38%
    15:00 +39°C° 0 mm 3 mps 723 mmHg 36%
    16:00 +38°C° 0 mm 3 mps 722 mmHg 40%
    17:00 +36°C° 0 mm 3 mps 722 mmHg 44%
    18:00 +35°C° 0 mm 3 mps 722 mmHg 47%
    19:00 +34°C° 0 mm 3 mps 722 mmHg 49%
    20:00 +34°C° 0 mm 3 mps 723 mmHg 52%
    21:00 +33°C° 0 mm 3 mps 723 mmHg 54%
    22:00 +31°C° 0 mm 2 mps 723 mmHg 55%
    23:00 +31°C° 0 mm 2 mps 723 mmHg 57%

    7 June, Sunday

    Time Temperature Precipitation Wind Pressure Humidity
    00:00 +30°C° 0 mm 2 mps 723 mmHg 58%
    01:00 +30°C° 0.1 mm 2 mps 723 mmHg 62%
    02:00 +29°C° 0.1 mm 3 mps 722 mmHg 65%
    03:00 +29°C° 0.1 mm 3 mps 722 mmHg 69%
    04:00 +28°C° 0 mm 3 mps 723 mmHg 71%
    05:00 +28°C° 0 mm 3 mps 723 mmHg 73%
    06:00 +28°C° 0 mm 3 mps 724 mmHg 76%
    07:00 +28°C° 0 mm 4 mps 724 mmHg 72%
    08:00 +29°C° 0 mm 4 mps 725 mmHg 68%
    09:00 +30°C° 0 mm 4 mps 725 mmHg 64%
    10:00 +33°C° 0 mm 4 mps 725 mmHg 60%
    11:00 +34°C° 0 mm 4 mps 725 mmHg 55%
    12:00 +35°C° 0 mm 5 mps 724 mmHg 51%
    13:00 +36°C° 0 mm 4 mps 724 mmHg 48%
    14:00 +37°C° 0 mm 3 mps 723 mmHg 45%
    15:00 +38°C° 0 mm 3 mps 722 mmHg 42%
    16:00 +37°C° 0 mm 3 mps 722 mmHg 44%
    17:00 +36°C° 0 mm 3 mps 722 mmHg 47%
    18:00 +35°C° 0 mm 3 mps 722 mmHg 49%
    19:00 +34°C° 0 mm 4 mps 722 mmHg 52%
    20:00 +33°C° 0 mm 4 mps 722 mmHg 55%
    21:00 +32°C° 0 mm 4 mps 723 mmHg 58%
    22:00 +32°C° 0 mm 4 mps 723 mmHg 59%
    23:00 +32°C° 0 mm 4 mps 723 mmHg 60%

    8 June, Monday

    Time Temperature Precipitation Wind Pressure Humidity
    00:00 +30°C° 0 mm 4 mps 723 mmHg 60%
    01:00 +30°C° 0 mm 4 mps 723 mmHg 63%
    02:00 +29°C° 0 mm 4 mps 722 mmHg 66%
    03:00 +28°C° 0 mm 4 mps 722 mmHg 69%
    04:00 +28°C° 0.6 mm 3 mps 723 mmHg 72%
    05:00 +27°C° 0.6 mm 2 mps 723 mmHg 75%
    06:00 +27°C° 0.6 mm 2 mps 723 mmHg 79%
    07:00 +27°C° 0.3 mm 2 mps 724 mmHg 76%
    08:00 +28°C° 0.3 mm 3 mps 724 mmHg 74%
    09:00 +29°C° 0.3 mm 4 mps 724 mmHg 71%
    10:00 +32°C° 0 mm 4 mps 724 mmHg 64%
    11:00 +33°C° 0 mm 3 mps 724 mmHg 57%
    12:00 +35°C° 0 mm 3 mps 724 mmHg 51%
    13:00 +32°C° 5.6 mm 5 mps 723 mmHg 61%
    14:00 +28°C° 5.6 mm 7 mps 723 mmHg 71%
    15:00 +24°C° 5.6 mm 9 mps 722 mmHg 81%
    16:00 +24°C° 1.5 mm 8 mps 722 mmHg 79%
    17:00 +24°C° 1.5 mm 7 mps 722 mmHg 77%
    18:00 +25°C° 1.5 mm 5 mps 722 mmHg 75%
    19:00 +25°C° 0 mm 4 mps 722 mmHg 76%
    20:00 +25°C° 0 mm 3 mps 722 mmHg 77%
    21:00 +25°C° 0 mm 1 mps 722 mmHg 78%
    22:00 +25°C° 0 mm 1 mps 723 mmHg 79%
    23:00 +25°C° 0 mm 1 mps 723 mmHg 79%

    9 June, Tuesday

    Time Temperature Precipitation Wind Pressure Humidity
    00:00 +25°C° 0 mm 1 mps 723 mmHg 80%
    01:00 +24°C° 0 mm 1 mps 723 mmHg 81%
    02:00 +24°C° 0 mm 1 mps 723 mmHg 82%
    03:00 +24°C° 0 mm 2 mps 722 mmHg 83%
    04:00 +24°C° 0 mm 1 mps 722 mmHg 83%
    05:00 +24°C° 0 mm 1 mps 722 mmHg 84%
    06:00 +23°C° 0 mm 1 mps 722 mmHg 85%
    07:00 +25°C° 0 mm 1 mps 722 mmHg 78%
    08:00 +27°C° 0 mm 2 mps 723 mmHg 71%
    09:00 +29°C° 0 mm 3 mps 723 mmHg 64%
    10:00 +31°C° 0 mm 3 mps 723 mmHg 58%
    11:00 +34°C° 0 mm 3 mps 723 mmHg 52%
    12:00 +36°C° 0 mm 3 mps 722 mmHg 46%
    13:00 +36°C° 0 mm 2 mps 722 mmHg 43%
    14:00 +37°C° 0 mm 2 mps 721 mmHg 40%
    15:00 +38°C° 0 mm 2 mps 721 mmHg 37%
    16:00 +37°C° 0 mm 2 mps 721 mmHg 41%
    17:00 +36°C° 0 mm 3 mps 721 mmHg 45%
    18:00 +35°C° 0 mm 3 mps 721 mmHg 48%
    19:00 +34°C° 0 mm 2 mps 721 mmHg 52%
    20:00 +32°C° 0 mm 2 mps 722 mmHg 55%
    21:00 +31°C° 0 mm 1 mps 722 mmHg 58%
    22:00 +30°C° 0.1 mm 2 mps 722 mmHg 62%
    23:00 +29°C° 0.1 mm 3 mps 722 mmHg 67%
    Show more